• Join FlightAware (Why Join?)
  • Login
  • US Flag 
10:04AM EST


 

Airport Tracker/Info


-or-


 

Live Flight TrackerFlight Track Log ✈ UAL1688 ✈ 24-Sep-2013 ✈ KLAS - KIAH

Flight Track Log - Related Links

Times and Time Zones

All times are in EDT time to prevent confusion due to time zone crossing. See the UAL1688 flight status page for this flight to view local times or setup timezone preferences in your user account.

Time Position Orientation Groundspeed Altitude Reporting Facility
EDT Latitude Longitude Course Direction KTS MPH feet Rate Location/Type
07:55PM 36.0770 -115.1560 270° West 163 188 2,900  Level FlightAware
07:56PM 36.0770 -115.1770 270° West 168 193 3,800 2,235 Climbing FlightAware
07:56PM 36.0760 -115.2070 268° West 201 231 4,800 2,280 Climbing FlightAware
07:56PM 36.0760 -115.2330 270° West 219 252 5,700 2,538 Climbing FlightAware
07:57PM 36.0750 -115.2400 260° West 228 262 5,900 1,636 Climbing FlightAware
07:57PM 36.0730 -115.2450 244° Southwest 234 269 6,000 1,385 Climbing FlightAware
07:57PM 36.0670 -115.2550 233° Southwest 247 284 6,200 1,412 Climbing FlightAware
07:57PM 36.0580 -115.2620 212° Southwest 260 299 6,400 2,250 Climbing FlightAware
07:57PM 36.0510 -115.2660 205° Southwest 262 302 6,800 3,643 Climbing FlightAware
07:57PM 36.0270 -115.2770 200° South 264 304 8,100 3,692 Climbing FlightAware
07:58PM 36.0060 -115.2870 201° Southwest 268 308 9,200 3,643 Climbing FlightAware
07:58PM 35.9930 -115.2910 194° South 273 314 9,800 2,743 Climbing FlightAware
07:58PM 35.9630 -115.2840 169° South 294 338 10,800 2,057 Climbing FlightAware
07:58PM 35.9530 -115.2760 147° Southeast 321 369 11,000 1,800 Climbing FlightAware
07:59PM 35.9420 -115.2590 129° Southeast 333 383 11,400 3,300 Climbing FlightAware
07:59PM 35.9360 -115.2400 111° Southeast 343 395 12,100 3,900 Climbing FlightAware
07:59PM 35.9340 -115.2200 97° East 346 398 12,700 3,000 Climbing FlightAware
07:59PM 35.9340 -115.1630 90° East 360 414 14,100 2,243 Climbing FlightAware
08:01PM 35.9344 -114.9981 90° East 380 437 17,000 2,367 Climbing Los Angeles Center
08:02PM 35.9325 -114.8236 91° East 415 478 19,900 2,661 Climbing Los Angeles Center
08:03PM 35.9317 -114.6717 90° East 438 504 22,500 2,226 Climbing Los Angeles Center
08:04PM 35.9306 -114.5133 90° East 454 522 24,500 1,790 Climbing Los Angeles Center
08:05PM 35.9272 -114.3481 91° East 474 545 26,200 1,680 Climbing Los Angeles Center
08:06PM 35.9272 -114.1786 90° East 488 562 28,000 1,790 Climbing Los Angeles Center
08:07PM 35.9242 -113.9672 91° East 508 585 29,900 1,805 Climbing Los Angeles Center
08:08PM 35.9039 -113.7914 98° East 517 595 31,700 1,645 Climbing Los Angeles Center
08:09PM 35.8775 -113.6186 101° East 515 593 33,300 1,790 Climbing Los Angeles Center
08:10PM 35.8492 -113.4353 101° East 516 594 35,400 1,680 Climbing Los Angeles Center
08:11PM 35.8233 -113.2664 101° East 508 585 36,800 912 Climbing Los Angeles Center
08:12PM 35.7950 -113.0939 101° East 510 587 37,300 629 Climbing Los Angeles Center
08:13PM 35.7669 -112.9150 101° East 524 603 38,100 919 Climbing Los Angeles Center
08:14PM 35.7381 -112.7347 101° East 533 613 39,200 1,065 Climbing Los Angeles Center
08:15PM 35.7094 -112.5561 101° East 531 611 40,300 871 Climbing Los Angeles Center
08:16PM 35.6744 -112.3486 102° East 517 595 41,000 111 Climbing Los Angeles Center
08:22PM 35.5290 -111.4890 102° East 511 588 41,000  Level FlightAware
08:22PM 35.5120 -111.3870 102° East 511 588 41,000  Level FlightAware
08:23PM 35.4910 -111.2740 103° East 510 587 41,000  Level FlightAware
08:23PM 35.4730 -111.1730 102° East 510 587 41,000  Level FlightAware
08:24PM 35.4490 -111.0380 102° East 510 587 41,000  Level FlightAware
08:25PM 35.4340 -110.9530 102° East 511 588 41,000  Level FlightAware
08:25PM 35.4070 -110.7990 102° East 511 588 41,000  Level FlightAware
08:26PM 35.3910 -110.7100 102° East 511 588 41,000  Level FlightAware
08:27PM 35.3720 -110.6070 103° East 512 589 41,000  Level FlightAware
08:27PM 35.3530 -110.5020 102° East 511 588 41,000  Level FlightAware
08:28PM 35.3360 -110.4100 103° East 512 589 41,000  Level FlightAware
08:28PM 35.3180 -110.3100 102° East 512 589 41,000  Level FlightAware
08:29PM 35.2990 -110.2080 103° East 512 589 41,000  Level FlightAware
08:29PM 35.2810 -110.1110 103° East 510 587 41,000  Level FlightAware
08:30PM 35.2640 -110.0200 103° East 509 586 41,000  Level FlightAware
08:31PM 35.2450 -109.9150 102° East 508 585 41,000  Level FlightAware
08:31PM 35.2260 -109.8160 103° East 506 582 41,000  Level FlightAware
08:32PM 35.2070 -109.7150 103° East 505 581 41,000  Level FlightAware
08:33PM 35.1850 -109.5990 103° East 505 581 41,000  Level FlightAware
08:33PM 35.1630 -109.4860 103° East 502 578 41,000  Level FlightAware
08:34PM 35.1460 -109.3970 103° East 502 578 41,000  Level FlightAware
08:35PM 35.1150 -109.2350 103° East 500 575 41,000  Level FlightAware
08:35PM 35.0920 -109.1200 104° East 499 574 41,000  Level FlightAware
08:36PM 35.0740 -109.0290 104° East 499 574 41,000  Level FlightAware
08:37PM 35.0560 -108.9320 103° East 500 575 41,000  Level FlightAware
08:37PM 35.0390 -108.8490 104° East 499 574 41,000  Level FlightAware
08:38PM 35.0180 -108.7430 104° East 501 577 41,000  Level FlightAware
08:38PM 35.0010 -108.6560 103° East 501 577 41,000  Level FlightAware
08:39PM 34.9840 -108.5690 103° East 501 577 41,000  Level FlightAware
08:40PM 34.9690 -108.4850 102° East 501 577 41,000  Level FlightAware
08:40PM 34.9340 -108.3210 105° East 502 578 41,000  Level FlightAware
08:41PM 34.9180 -108.2370 103° East 502 578 41,000  Level FlightAware
08:42PM 34.9030 -108.1520 102° East 502 578 41,000  Level FlightAware
08:42PM 34.8870 -108.0680 103° East 502 578 41,000  Level FlightAware
08:43PM 34.8710 -107.9830 103° East 502 578 41,000  Level FlightAware
08:43PM 34.8550 -107.8990 103° East 502 578 41,000  Level FlightAware
08:44PM 34.8070 -107.7010 106° East 499 574 41,000  Level FlightAware
08:45PM 34.7850 -107.5950 104° East 496 571 41,000  Level FlightAware
08:45PM 34.7650 -107.5000 104° East 495 570 41,000  Level FlightAware
08:46PM 34.7420 -107.3920 105° East 496 571 41,000  Level FlightAware
08:47PM 34.7220 -107.2930 104° East 496 571 41,000  Level FlightAware
08:47PM 34.6990 -107.1890 105° East 494 568 41,000  Level FlightAware
08:48PM 34.6770 -107.0860 105° East 494 568 41,000  Level FlightAware
08:49PM 34.6560 -106.9890 105° East 494 568 41,000  Level FlightAware
08:49PM 34.6360 -106.8960 105° East 495 570 41,000  Level FlightAware
08:50PM 34.6160 -106.8010 104° East 494 568 41,000  Level FlightAware
08:50PM 34.5980 -106.7180 105° East 494 568 41,000  Level FlightAware
08:51PM 34.5790 -106.6300 105° East 494 568 41,000  Level FlightAware
08:51PM 34.5610 -106.5450 104° East 494 568 41,000  Level FlightAware
08:52PM 34.5340 -106.4260 105° East 494 568 41,000  Level FlightAware
08:53PM 34.5150 -106.3400 105° East 494 568 41,000  Level FlightAware
08:53PM 34.4940 -106.2440 105° East 494 568 41,000  Level FlightAware
08:54PM 34.4730 -106.1520 105° East 494 568 41,000  Level FlightAware
08:54PM 34.4550 -106.0650 104° East 494 568 41,000  Level FlightAware
08:55PM 34.4390 -105.9830 103° East 494 568 41,000  Level FlightAware
08:56PM 34.4220 -105.9000 104° East 494 568 41,000  Level FlightAware
08:56PM 34.4050 -105.8180 104° East 494 568 41,000  Level FlightAware
08:57PM 34.3880 -105.7360 104° East 494 568 41,000  Level FlightAware
08:57PM 34.3710 -105.6540 104° East 494 568 41,000  Level FlightAware
08:58PM 34.3540 -105.5710 104° East 494 568 41,000  Level FlightAware
08:59PM 34.3360 -105.4870 105° East 494 568 41,000  Level FlightAware
08:59PM 34.3200 -105.4050 103° East 494 568 41,000  Level FlightAware
09:00PM 34.3030 -105.3230 104° East 494 568 41,000  Level FlightAware
09:00PM 34.2860 -105.2410 104° East 494 568 41,000  Level FlightAware
09:01PM 34.2690 -105.1580 104° East 494 568 41,000  Level FlightAware
09:02PM 34.2520 -105.0760 104° East 494 568 41,000  Level FlightAware
09:02PM 34.2350 -104.9940 104° East 494 568 41,000  Level FlightAware
09:03PM 34.2180 -104.9120 104° East 494 568 41,000  Level FlightAware
09:03PM 34.2010 -104.8300 104° East 494 568 41,000  Level FlightAware
09:05PM 33.8283 -104.5633 104° East 492 566 41,000  Level Albuquerque Center
09:06PM 33.7539 -104.4092 120° Southeast 494 568 41,000  Level Albuquerque Center
09:07PM 33.6856 -104.2658 120° Southeast 494 568 41,000  Level Albuquerque Center
09:08PM 33.6147 -104.1239 121° Southeast 495 570 41,000  Level Albuquerque Center
09:09PM 33.5408 -103.9714 120° Southeast 492 566 41,000  Level Albuquerque Center
09:14PM 33.1760 -103.2420 120° Southeast 488 562 41,000  Level FlightAware
09:15PM 33.1340 -103.1590 121° Southeast 487 560 41,000  Level FlightAware
09:15PM 33.0930 -103.0780 121° Southeast 487 560 41,000  Level FlightAware
09:16PM 33.0570 -103.0060 121° Southeast 486 559 41,000  Level FlightAware
09:16PM 33.0130 -102.9190 121° Southeast 485 558 41,000  Level FlightAware
09:17PM 32.9750 -102.8430 121° Southeast 484 557 41,000  Level FlightAware
09:17PM 32.9340 -102.7640 122° Southeast 483 556 41,000  Level FlightAware
09:18PM 32.8910 -102.6790 121° Southeast 481 554 41,000  Level FlightAware
09:19PM 32.8500 -102.6000 122° Southeast 481 554 41,000  Level FlightAware
09:19PM 32.8090 -102.5190 121° Southeast 480 552 41,000  Level FlightAware
09:20PM 32.7750 -102.4530 121° Southeast 481 554 41,000  Level FlightAware
09:20PM 32.7290 -102.3630 121° Southeast 480 552 41,000  Level FlightAware
09:21PM 32.6870 -102.2830 122° Southeast 480 552 41,000  Level FlightAware
09:22PM 32.6450 -102.2000 121° Southeast 481 554 41,000  Level FlightAware
09:22PM 32.6090 -102.1310 122° Southeast 481 554 41,000  Level FlightAware
09:23PM 32.5640 -102.0440 122° Southeast 482 555 41,000  Level FlightAware
09:23PM 32.5260 -101.9720 122° Southeast 482 555 41,000  Level FlightAware
09:24PM 32.4840 -101.8910 122° Southeast 483 556 41,000  Level FlightAware
09:24PM 32.4420 -101.8110 122° Southeast 482 555 41,000  Level FlightAware
09:25PM 32.4000 -101.7300 122° Southeast 482 555 41,000  Level FlightAware
09:26PM 32.3620 -101.6580 122° Southeast 482 555 41,000  Level FlightAware
09:26PM 32.3200 -101.5770 122° Southeast 482 555 41,000  Level FlightAware
09:27PM 32.2780 -101.4990 122° Southeast 481 554 41,000  Level FlightAware
09:27PM 32.2370 -101.4220 122° Southeast 481 554 41,000  Level FlightAware
09:28PM 32.1960 -101.3430 122° Southeast 480 552 41,000  Level FlightAware
09:29PM 32.1530 -101.2620 122° Southeast 479 551 41,000  Level FlightAware
09:29PM 32.1140 -101.1890 122° Southeast 478 550 41,000  Level FlightAware
09:30PM 32.0730 -101.1130 122° Southeast 478 550 41,000  Level FlightAware
09:30PM 32.0310 -101.0330 122° Southeast 478 550 41,000  Level FlightAware
09:31PM 31.9880 -100.9530 122° Southeast 478 550 41,000  Level FlightAware
09:31PM 31.9500 -100.8820 122° Southeast 478 550 41,000  Level FlightAware
09:32PM 31.9080 -100.8030 122° Southeast 479 551 41,000  Level FlightAware
09:33PM 31.8650 -100.7230 122° Southeast 479 551 41,000  Level FlightAware
09:33PM 31.8270 -100.6540 123° Southeast 479 551 41,000  Level FlightAware
09:34PM 31.7840 -100.5740 122° Southeast 480 552 41,000  Level FlightAware
09:34PM 31.7410 -100.4940 122° Southeast 481 554 41,000  Level FlightAware
09:35PM 31.6990 -100.4170 123° Southeast 481 554 41,000  Level FlightAware
09:36PM 31.6560 -100.3360 122° Southeast 482 555 41,000  Level FlightAware
09:36PM 31.6170 -100.2660 123° Southeast 482 555 41,000  Level FlightAware
09:37PM 31.5740 -100.1870 123° Southeast 482 555 41,000  Level FlightAware
09:37PM 31.5310 -100.1080 123° Southeast 481 554 41,000  Level FlightAware
09:38PM 31.4880 -100.0290 123° Southeast 482 555 41,000  Level FlightAware
09:38PM 31.4490 -99.9590 123° Southeast 482 555 41,000  Level FlightAware
09:39PM 31.4040 -99.8760 122° Southeast 481 554 41,000  Level FlightAware
09:40PM 31.3620 -99.8000 123° Southeast 480 552 41,000  Level FlightAware
09:40PM 31.3210 -99.7260 123° Southeast 479 551 41,000  Level FlightAware
09:41PM 31.2750 -99.6430 123° Southeast 479 551 41,000  Level FlightAware
09:41PM 31.2380 -99.5750 122° Southeast 479 551 41,000  Level FlightAware
09:42PM 31.1970 -99.5020 123° Southeast 479 551 41,000  Level FlightAware
09:43PM 31.1540 -99.4240 123° Southeast 479 551 41,000  Level FlightAware
09:43PM 31.1250 -99.3570 117° Southeast 476 548 41,000  Level FlightAware
09:43PM 31.1140 -99.3050 104° East 472 543 41,000  Level FlightAware
09:44PM 31.1070 -99.2180 95° East 470 541 41,000  Level FlightAware
09:45PM 31.1000 -99.1300 95° East 471 542 41,000  Level FlightAware
09:45PM 31.0930 -99.0390 95° East 470 541 41,000  Level FlightAware
09:46PM 31.0850 -98.9480 96° East 470 541 41,000  Level FlightAware
09:46PM 31.0780 -98.8670 96° East 470 541 41,000  Level FlightAware
09:47PM 31.0697 -98.7736 96° East 469 540 41,000  Level FlightAware ADS-B
09:47PM 31.0617 -98.6818 96° East 468 539 41,000  Level FlightAware ADS-B
09:48PM 31.0535 -98.5892 96° East 467 537 41,000  Level FlightAware ADS-B
09:49PM 31.0470 -98.5160 96° East 466 536 41,000  Level FlightAware
09:49PM 31.0415 -98.4551 96° East 466 536 41,000  Level FlightAware ADS-B
09:49PM 31.0347 -98.3795 96° East 467 537 41,000  Level FlightAware ADS-B
09:50PM 31.0275 -98.2988 96° East 468 539 41,000  Level FlightAware ADS-B
09:51PM 31.0189 -98.2024 96° East 468 539 41,000  Level FlightAware ADS-B
09:51PM 31.0112 -98.1174 96° East 468 539 41,000  Level FlightAware ADS-B
09:52PM 31.0042 -98.0414 96° East 468 539 41,000  Level FlightAware ADS-B
09:52PM 30.9969 -97.9635 96° East 469 540 41,000  Level FlightAware ADS-B
09:53PM 30.9898 -97.8877 96° East 469 540 41,000  Level FlightAware ADS-B
09:53PM 30.9815 -97.7992 96° East 469 540 41,000  Level FlightAware ADS-B
09:54PM 30.9741 -97.7226 96° East 470 541 41,000  Level FlightAware ADS-B
09:54PM 30.9668 -97.6462 96° East 471 542 41,000  Level FlightAware ADS-B
09:55PM 30.9596 -97.5712 96° East 471 542 41,000  Level FlightAware ADS-B
09:55PM 30.9577 -97.5567 99° East 471 542 41,000 -316 Level FlightAware ADS-B
09:55PM 30.9516 -97.5227 102° East 472 543 40,900 -857 Descending FlightAware ADS-B
09:55PM 30.9468 -97.5026 106° East 472 543 40,700 -1,050 Descending FlightAware ADS-B
09:56PM 30.9245 -97.4271 109° East 472 543 40,200 -968 Descending FlightAware ADS-B
09:56PM 30.9030 -97.3541 109° East 475 547 39,700 -1,000 Descending FlightAware ADS-B
09:57PM 30.8816 -97.2811 109° East 475 547 39,200 -984 Descending FlightAware ADS-B
09:57PM 30.8601 -97.2087 109° East 472 543 38,700 -885 Descending FlightAware ADS-B
09:58PM 30.8386 -97.1368 109° East 472 543 38,300 -900 Descending FlightAware ADS-B
09:58PM 30.8171 -97.0646 109° East 474 545 37,800 -1,600 Descending FlightAware ADS-B
09:59PM 30.7955 -96.9921 109° East 473 544 36,700 -2,700 Descending FlightAware ADS-B
09:59PM 30.7738 -96.9195 109° East 478 550 35,100 -3,344 Descending FlightAware ADS-B
10:00PM 30.7513 -96.8446 109° East 490 564 33,300 -3,541 Descending FlightAware ADS-B
10:00PM 30.7287 -96.7692 109° East 498 573 31,500 -3,639 Descending FlightAware ADS-B
10:01PM 30.7053 -96.6916 109° East 500 575 29,600 -3,541 Descending FlightAware ADS-B
10:01PM 30.6824 -96.6156 109° East 496 571 27,900 -3,300 Descending FlightAware ADS-B
10:02PM 30.6598 -96.5403 109° East 487 560 26,300 -3,100 Descending FlightAware ADS-B
10:02PM 30.6373 -96.4661 109° East 477 549 24,800 -2,951 Descending FlightAware ADS-B
10:03PM 30.6150 -96.3930 110° East 464 534 23,300 -2,852 Descending FlightAware ADS-B
10:03PM 30.5939 -96.3233 109° East 454 522 21,900 -2,852 Descending FlightAware ADS-B
10:04PM 30.5730 -96.2541 109° East 443 510 20,400 -3,246 Descending FlightAware ADS-B
10:04PM 30.5526 -96.1874 110° East 443 510 18,600 -3,100 Descending FlightAware ADS-B
10:05PM 30.5322 -96.1206 110° East 431 496 17,300 -2,900 Descending FlightAware ADS-B
10:05PM 30.5121 -96.0553 110° East 424 488 15,700 -3,148 Descending FlightAware ADS-B
10:06PM 30.4921 -95.9903 110° East 420 483 14,100 -3,049 Descending FlightAware ADS-B
10:06PM 30.4724 -95.9267 110° East 412 474 12,600 -2,500 Descending FlightAware ADS-B
10:07PM 30.4611 -95.8913 110° East 405 466 12,100 -1,304 Descending FlightAware ADS-B
10:07PM 30.4562 -95.8795 116° Southeast 406 467 12,100  Level FlightAware ADS-B
10:07PM 30.4494 -95.8661 120° Southeast 406 467 12,100  Level FlightAware ADS-B
10:07PM 30.4393 -95.8504 127° Southeast 405 466 12,100  Level FlightAware ADS-B
10:07PM 30.4303 -95.8391 133° Southeast 404 465 12,100  Level FlightAware ADS-B
10:08PM 30.3882 -95.7946 138° Southeast 399 459 12,100 -590 Level FlightAware ADS-B
10:08PM 30.3469 -95.7513 138° Southeast 396 456 11,500 -1,574 Descending FlightAware ADS-B
10:09PM 30.3052 -95.7077 138° Southeast 391 450 10,500 -1,377 Descending FlightAware ADS-B
10:09PM 30.2653 -95.6662 138° Southeast 387 445 10,100 -393 Descending FlightAware ADS-B
10:10PM 30.2247 -95.6241 138° Southeast 389 448 10,100 -100 Level FlightAware ADS-B
10:10PM 30.1854 -95.5833 138° Southeast 359 413 10,000 -100 Descending FlightAware ADS-B
10:11PM 30.1508 -95.5473 138° Southeast 317 365 10,000 -533 Level FlightAware ADS-B
10:11PM 30.1345 -95.5302 138° Southeast 313 360 9,600 -1,636 Descending FlightAware ADS-B
10:11PM 30.1282 -95.5232 136° Southeast 311 358 9,400 -1,800 Descending FlightAware ADS-B
10:11PM 30.1248 -95.5189 132° Southeast 311 358 9,300 -1,000 Descending FlightAware ADS-B
10:11PM 30.1219 -95.5146 128° Southeast 308 354 9,300 -857 Level FlightAware ADS-B
10:11PM 30.1187 -95.5093 125° Southeast 305 351 9,200 -1,500 Descending FlightAware ADS-B
10:11PM 30.1165 -95.5049 120° Southeast 303 349 9,100 -1,500 Descending FlightAware ADS-B
10:11PM 30.1138 -95.4991 118° Southeast 300 345 9,000 -2,000 Descending FlightAware ADS-B
10:12PM 30.1111 -95.4917 113° Southeast 297 342 8,800 -1,800 Descending FlightAware ADS-B
10:12PM 30.1091 -95.4845 108° East 294 338 8,700 -1,333 Descending FlightAware ADS-B
10:12PM 30.1078 -95.4784 104° East 291 335 8,600 -1,200 Descending FlightAware ADS-B
10:12PM 30.1064 -95.4684 99° East 287 330 8,500 -1,333 Descending FlightAware ADS-B
10:12PM 30.1061 -95.4639 94° East 283 326 8,400 -1,714 Descending FlightAware ADS-B
10:12PM 30.1059 -95.4576 92° East 281 323 8,300 -1,429 Descending FlightAware ADS-B
10:12PM 30.1062 -95.4335 89° East 277 319 7,900 -1,161 Descending FlightAware ADS-B
10:12PM 30.1064 -95.4133 89° East 269 310 7,700 -621 Descending FlightAware ADS-B
10:13PM 30.1063 -95.3917 90° East 260 299 7,600 -800 Descending FlightAware ADS-B
10:13PM 30.1062 -95.3707 90° East 254 292 7,300 -1,071 Descending FlightAware ADS-B
10:13PM 30.1062 -95.3534 90° East 252 290 7,100 -414 Descending FlightAware ADS-B
10:13PM 30.1062 -95.3322 90° East 251 289 7,100 -387 Level FlightAware ADS-B
10:14PM 30.1062 -95.3120 90° East 250 288 6,900 -800 Descending FlightAware ADS-B
10:14PM 30.1062 -95.2919 90° East 249 287 6,700 -968 Descending FlightAware ADS-B
10:14PM 30.1062 -95.2712 90° East 248 285 6,400 -1,688 Descending FlightAware ADS-B
10:14PM 30.1061 -95.2494 90° East 252 290 5,800 -1,920 Descending FlightAware ADS-B
10:15PM 30.1059 -95.2384 91° East 252 290 5,600 -1,500 Descending FlightAware ADS-B
10:15PM 30.1056 -95.2332 94° East 253 291 5,500 -1,714 Descending FlightAware ADS-B
10:15PM 30.1049 -95.2291 101° East 254 292 5,400 -1,800 Descending FlightAware ADS-B
10:15PM 30.1027 -95.2205 106° East 257 296 5,200 -1,500 Descending FlightAware ADS-B
10:15PM 30.1005 -95.2130 109° East 257 296 5,100 -1,429 Descending FlightAware ADS-B
10:15PM 30.0946 -95.1934 109° East 255 293 4,700 -1,200 Descending FlightAware ADS-B
10:15PM 30.0889 -95.1741 109° East 245 282 4,500 -968 Descending FlightAware ADS-B
10:16PM 30.0835 -95.1561 109° East 231 266 4,200 -1,364 Descending FlightAware ADS-B
10:16PM 30.0811 -95.1482 109° East 226 260 4,000 -1,636 Descending FlightAware ADS-B
10:16PM 30.0794 -95.1437 114° Southeast 225 259 3,900 -2,000 Descending FlightAware ADS-B
10:16PM 30.0771 -95.1395 122° Southeast 224 258 3,700 -2,571 Descending FlightAware ADS-B
10:16PM 30.0751 -95.1368 131° Southeast 226 260 3,600 -1,714 Descending FlightAware ADS-B
10:16PM 30.0716 -95.1333 139° Southeast 227 261 3,500 -1,714 Descending FlightAware ADS-B
10:16PM 30.0688 -95.1311 146° Southeast 229 264 3,400 -2,571 Descending FlightAware ADS-B
10:16PM 30.0653 -95.1291 154° Southeast 231 266 3,200 -2,870 Descending FlightAware ADS-B
10:16PM 30.0369 -95.1288 179° South 231 266 2,300 -1,862 Descending FlightAware ADS-B
10:17PM 30.0344 -95.1292 188° South 237 273 2,300 -462 Level FlightAware ADS-B
10:17PM 30.0312 -95.1297 188° South 231 266 2,200 -2,000 Descending FlightAware ADS-B
10:17PM 30.0281 -95.1306 194° South 230 265 2,100 -1,000 Descending FlightAware ADS-B
10:17PM 30.0246 -95.1322 202° Southwest 228 262 2,100  Level FlightAware ADS-B
10:17PM 30.0203 -95.1347 207° Southwest 221 254 2,100  Level FlightAware ADS-B
10:17PM 30.0158 -95.1378 211° Southwest 209 241 2,100  Level FlightAware ADS-B
10:17PM 30.0060 -95.1445 211° Southwest 210 242 2,100  Level FlightAware ADS-B
10:17PM 30.0030 -95.1469 215° Southwest 210 242 2,100  Level FlightAware ADS-B
10:17PM 29.9977 -95.1524 222° Southwest 207 238 2,100  Level FlightAware ADS-B
10:17PM 29.9957 -95.1548 226° Southwest 206 237 2,100  Level FlightAware ADS-B
10:17PM 29.9934 -95.1580 230° Southwest 203 234 2,100  Level FlightAware ADS-B
10:18PM 29.9906 -95.1626 235° Southwest 201 231 2,100 -545 Level FlightAware ADS-B
10:18PM 29.9839 -95.1740 236° Southwest 197 227 2,000 -400 Descending FlightAware ADS-B
10:18PM 29.9828 -95.1759 237° Southwest 197 227 2,000 -500 Level FlightAware ADS-B
10:18PM 29.9813 -95.1790 241° Southwest 196 226 1,900 -857 Descending FlightAware ADS-B
10:18PM 29.9801 -95.1822 247° West 195 224 1,900 -667 Level FlightAware ADS-B
10:18PM 29.9787 -95.1878 254° West 190 219 1,800 -600 Descending FlightAware ADS-B
10:18PM 29.9780 -95.1920 259° West 182 209 1,800 -632 Level FlightAware ADS-B
10:18PM 29.9777 -95.2043 268° West 164 189 1,600 -600 Descending FlightAware ADS-B
10:19PM 29.9776 -95.2182 270° West 154 177 1,500 -414 Descending FlightAware ADS-B
10:19PM 29.9776 -95.2290 270° West 153 176 1,400 -692 Descending FlightAware ADS-B
10:19PM 29.9775 -95.2388 269° West 150 173 1,200 -857 Descending FlightAware ADS-B
10:19PM 29.9777 -95.2507 271° West 149 171 1,000 -800 Descending FlightAware ADS-B
10:20PM 29.9777 -95.2626 270° West 148 170 800 -800 Descending FlightAware ADS-B
10:20PM 29.9776 -95.2746 269° West 147 169 600 -750 Descending FlightAware ADS-B
10:20PM 29.9776 -95.2879 270° West 146 168 400 -720 Descending FlightAware ADS-B
10:20PM 29.9776 -95.2937 270° West 145 167 300 -545 Descending FlightAware ADS-B
10:20PM 29.9776 -95.3044 270° West 143 165 200 -429 Descending FlightAware ADS-B
10:21PM 29.9776 -95.3173 270° West 115 132 -667 Descending FlightAware ADS-B
10:21PM 29.9776 -95.3240 270° West 72 83  Level FlightAware ADS-B